Погода в Тернополе

Хотите узнать прогноз погоды в Тернополе? Тогда Вам сюда: Погода в Тернополе

Поиск расширенной информации на нашем сайте:

Полезная информация:

Новости сайта



02.01.2020
Опубликован Долгосрочный прогноз погоды по городам России и ближнего зарубежья на январь 2020 года.
Карты: Прогноз на январь и февраль 2020 года, Сравнение прогнозируемой аномалии приземной температуры воздуха на январь 2020 года по разным моделям.




Погода в Тернополе - сегодня

Время (UTC), дата Ветер
(°,м/с) 
Видим.   Явления Облачность Т
(°С)
Тd
(°С)
f(%) Тe
(°С)
Pmin
(гПа)
dP
(гПа)
Po
(мм)
O2
(г/м3)
Тmin Tmax R s Состояние
почвы
21 22.10.20 260 (З) 10 км    ясно 
+8.2 +6.5 89 +9  1020.3  -0.1  736  287           
00 23.10.20 100 (В) 10 км    ясно 
+6 +5.1 94 +7  1019.9  -0.7  735  289           
03 23.10.20 тихо ()   4000 м  дымка  ясно 
+4.7 +4 95 +5  1019.5  -0.5  735  290           
06 23.10.20 тихо ()   4000 м  дымка  5/0 средняя, верхняя 
[Ac trans|Ci fib]
+4.8 +3.4 91 +5  1019.2  -0.3  734  290  +2.9  -0.4       
09 23.10.20 230 (ЮЗ) 10 км    6/0 средняя, верхняя 
[Ac trans|Ci fib]
+15 +7.2 60 +15  1017.2  -0.5  734  279           
12 23.10.20 250 (З) 10 км    8/0 средняя, верхняя 
[Ac trans|Ci fib]
+16.5 +7.2 54 +17  1016.1  -0.9  733  277           
15 23.10.20 260 (З) 10 км    8/0 средняя, верхняя 
[Ac trans|Ci fib]
+14.7 +8.6 67 +16  1015.7  -0.6  733  279         
18 23.10.20 210 (ЮЗ) 10 км    9/0 средняя, верхняя 
[Ac trans|Ci fib]
+10.8 +8.6 86 +12  1016.1  -0.1  733  282    +17       
21 23.10.20 тихо ()   10 км    6/0 средняя 
[Ac trans]
+9.7 +7.2 84 +10  1015.7  -0.6  732  284           
00 24.10.20 тихо ()   10 км    6/0 средняя 
[Ac trans]
+7.9 +6.8 93 +8  1015.5  -0.4  732  285           
03 24.10.20 тихо ()   4000 м  дымка  8/4 1000 м средняя 
[Sc|Ac trans]
+8.3 +7.2 93 +8  1014.2  -1.2  731  285           
06 24.10.20 тихо ()   4000 м  дымка  9/5 1000 м средняя 
[Sc|Ac trans]
+9.1 +7.7 91 +9  1014.5  0.4  731  284  +7.7         
09 24.10.20 260 (З) 6000 м  дымка  9/4 1500 м средняя, верхняя 
[Sc|Ac As|Ci sp]
+14.3 +9.5 73 +15  1013.9  0.1  732  278           
12 24.10.20 250 (З) 10 км    8/3 1000 м средняя, верхняя 
[Sc diur, vesp|Ac trans|Cs]
+17.2 +10.6 65 +19  1013.5  732  275           
15 24.10.20 270 (З) 10 км    9/3 1500 м средняя, верхняя 
[Sc diur, vesp|Ac cuf|Ci]
+14.7 +10.4 75 +17  1014.6  0.8  732  278           
18 24.10.20 310 (СЗ) 6000 м  дымка  10/10 840 м 
[Sc]
+13.4 +11 85 +16  1016.4  1.5  733  280    +17.7       
21 24.10.20 310 (СЗ) 4000 м  дымка  10/10 540 м 
[Sc]
+11.4 +10.2 92 +13  1017.7  734  282           
00 25.10.20 340 (С) 2000 м  дымка  10/10 150 м 
[St]
+10.4 +9.6 95 +11  1018.5  0.6  734  283           
03 25.10.20 360 (С) 4000 м  дымка  10/10 240 м 
[St]
+9.9 +9.1 95 +10  1018.2  -0.3  734  284           
06 25.10.20 120 (ЮВ) 2000 м  дымка  10/10 100 м 
[St]
+9 +8.6 97 +9  1019.6  1.2  735  285  +8.9         
09 25.10.20 110 (В) 4000 м  дымка  10/10 210 м 
[St]
+9.7 +8.1 90 +9  1019.6  0.1  735  285           
12 25.10.20 130 (ЮВ) 10 км  слаб. ливневой дождь  9/5 900 м кучево-дожд., средняя 
[Cb cap|Ac trans]
+12 +8.8 81 +12  1017.9  -1.3  734  282           
15 25.10.20 110 (В) 10 км  {ливн. осадки}  9/6 1000 м кучево-дожд., средняя 
[Cb cap|Ac trans]
+11.3 +9.9 91 +12  1017.3  -0.7  734  282           
18 25.10.20 120 (ЮВ) 10 км  {ливн. осадки}  9/4 1000 м средняя 
[Sc|Ac trans]
+10.6 +9.4 92 +11  1017.3  -0.1  734  283    +12.5  0.3     
21 25.10.20 130 (ЮВ) 10 км    8/0 верхняя 
[Ci fib]
+10.4 +9.2 92 +11  1016.9  -0.4  733  283           
Время (UTC), дата Ветер
(°,м/с) 
Видим.   Явления Облачность Т
(°С)
Тd
(°С)
f(%) Тe
(°С)
Pmin
(гПа)
dP
(гПа)
Po
(мм)
O2
(г/м3)
Тmin Tmax R s Состояние
почвы

Для получения пояснительной информации подведите курсор к названию столбца.

ПОГОДА в Тернополе - архив

Всё, что Вы хотите узнать о погоде в Тернополе - удобно и подробно!

Выберите нужную дату (начиная с 1 января 2019* года) и нажмите кнопку "Найти".
Будут отображены архивные сводки погоды по пункту Тернополь, начиная с указанной даты.


Отображать данные в формате CSV (для использования в таблицах Excel)


Внимание! Наш архив погоды предназначен исключительно для личного некоммерческого использования в познавательных целях. Если Вам необходимы официальные справки о состоянии погоды (для производственных, юридических, коммерческих и т.п. целей), обращайтесь в органы Росгидромета.

*Примечание: данная дата относится к архиву по метеостанциям СССР (Россия, СНГ, Балтия).
Архив по метеостанциям Зарубежной Европы и Азии (кроме Китая) хранится 10 дней, по другим регионам земного шара (Китай, Африка, Америка, Австралия, Океания) - 1 день.

Тернополь - район местоположения метеостанции


Название, широта, долгота, высота метеостанции:
Тернополь 49.5°ш. 25.7°д. 329 м над ур. моря [Украина]

Дополнительная информация

В oтличие oт бoльшинства пoгoдных сайтoв мы публикуем пoдрoбную метеoинфoрмацию в детальнoм прoфессиoнальнoм фoрмате.

Характеристики температуры и влажнoсти вoздуха измеряются на высoте 2 м в тени вдали oт зданий и деревьев.
Скoрoсть ветра измеряется на высoте 10 м (на урoвне рoста челoвека скoрoсть ветра ниже в 1.5-2 раза). Если метеoстанция нахoдится в гoрoде или в лесу, тo скoрoсть ветра занижена на 2-4 м/с пo сравнению с oткрытым местoм. Скoрoсть ветра над акватoриями крупных рек и oзёр, а также на вершинах хoлмoв на 2-5 м/с выше, чем в oбычных услoвиях.
Атмoсфернoе давление в разных тoчках местнoсти мoжет значительнo oтличаться oт давления на метеoстанции, в зависимoсти oт услoвий рельефа (при пoдъёме на 10 м давление пoнижается примернo на 1 мм рт.ст.).